Change the Weather History Date:

Friday, December 21, 2012

  Actual Average Record
Temperature  
Mean Temperature 46 °F 52 °F  
Max Temperature 58 °F 63 °F 81 °F (1967)
Min Temperature 34 °F 42 °F 22 °F (1901)
Degree Days  
Heating Degree Days 19 13  
Month to date heating degree days 132 245  
Since 1 July heating degree days 429 480  
Cooling Degree Days 0 1  
Month to date cooling degree days 14 21  
Year to date cooling degree days 2958 2822  
Moisture  
Dew Point 20 °F    
Average Humidity 49    
Maximum Humidity 82    
Minimum Humidity 16    
Precipitation  
Precipitation 0.00 in 0.18 in 3.40 in (1997)
Month to date precipitation 5.53 3.71  
Year to date precipitation 61.24 58.76  
Snow  
Snow 0.00 in - - ()
Month to date snowfall 0.0  
Since 1 July snowfall 0.0  
Snow Depth 0.00 in    
Sea Level Pressure  
Sea Level Pressure 30.39 in    
Wind  
Wind Speed 5 mph (NW)    
Max Wind Speed 14 mph    
Max Gust Speed 18 mph    
Visibility 10 miles    
Events      
T = Trace of Precipitation, MM = Missing Value Source: NWS Daily Summary

Daily Weather History Graph

Daily Weather History Graph

Search for Another Location

Airport or City:

Trip Planner

Search our weather history database for the weather conditions in past years. The results will help you decide how hot, cold, wet, or windy it might be!

Date:

Astronomy

Dec. 21, 2012 Rise Set
Actual Time 6:57 AM CST 5:08 PM CST
Civil Twilight 6:31 AM CST 5:34 PM CST
Nautical Twilight 6:01 AM CST 6:04 PM CST
Astronomical Twilight 5:31 AM CST 6:34 PM CST
Moon 12:40 PM CST (12/21) 1:01 AM CST (12/21)
Length of Visible Light 11h 03m
Length of Day
10h 10m
Waxing Gibbous, 65% of the Moon is Illuminated
Dec 21
Waxing Gibbous
Dec 28
Full
Jan 4
Last Quarter
Jan 11
New
Jan 18
First Quarter

Hourly Weather History & Observations

Time (CST) Temp. Windchill Dew Point Humidity Pressure Visibility Wind Dir Wind Speed Gust Speed Precip Events Conditions
12:53 AM 41.0 °F 37.1 °F 24.1 °F 51% 30.33 in 10.0 mi WNW 5.8 mph - N/A   Clear
1:53 AM 39.9 °F 33.9 °F 21.9 °F 49% 30.35 in 10.0 mi West 9.2 mph - N/A   Clear
2:53 AM 39.0 °F 34.0 °F 21.0 °F 49% 30.35 in 10.0 mi WNW 6.9 mph - N/A   Clear
3:53 AM 37.9 °F 34.4 °F 21.0 °F 51% 30.36 in 10.0 mi WNW 4.6 mph - N/A   Clear
4:53 AM 37.0 °F 34.5 °F 21.0 °F 52% 30.37 in 10.0 mi NW 3.5 mph - N/A   Clear
5:53 AM 37.4 °F 32.8 °F 19.4 °F 48% 30.39 in 10.0 mi NNW 5.8 mph - N/A   Clear
6:53 AM 36.0 °F 32.1 °F 18.0 °F 48% 30.41 in 10.0 mi NW 4.6 mph - N/A   Clear
7:53 AM 37.9 °F 33.5 °F 19.0 °F 47% 30.43 in 10.0 mi NW 5.8 mph - N/A   Clear
8:53 AM 43.0 °F 38.8 °F 16.0 °F 34% 30.47 in 10.0 mi NNW 6.9 mph - N/A   Clear
9:53 AM 46.0 °F 42.5 °F 14.0 °F 28% 30.47 in 10.0 mi NNW 6.9 mph 16.1 mph N/A   Clear
10:53 AM 50.0 °F - 12.9 °F 23% 30.46 in 10.0 mi North 8.1 mph - N/A   Clear
11:53 AM 53.1 °F - 12.0 °F 20% 30.42 in 10.0 mi Variable 6.9 mph - N/A   Clear
12:53 PM 55.9 °F - 10.0 °F 16% 30.38 in 10.0 mi NNW 6.9 mph 17.3 mph N/A   Clear
1:53 PM 57.0 °F - 12.0 °F 17% 30.36 in 10.0 mi NNW 9.2 mph - N/A   Clear
2:53 PM 57.0 °F - 12.0 °F 17% 30.35 in 10.0 mi NNW 8.1 mph 17.3 mph N/A   Clear
3:53 PM 57.0 °F - 15.1 °F 19% 30.34 in 10.0 mi NNW 6.9 mph - N/A   Clear
4:53 PM 54.0 °F - 17.1 °F 23% 30.35 in 10.0 mi NNW 4.6 mph - N/A   Clear
5:53 PM 46.9 °F - 23.0 °F 39% 30.37 in 10.0 mi Calm Calm - N/A   Clear
6:53 PM 42.1 °F - 28.9 °F 60% 30.38 in 10.0 mi Calm Calm - N/A   Clear
7:53 PM 41.0 °F - 30.0 °F 65% 30.39 in 10.0 mi Calm Calm - N/A   Clear
8:53 PM 37.9 °F - 30.9 °F 76% 30.40 in 10.0 mi Calm Calm - N/A   Clear
9:53 PM 37.0 °F - 32.0 °F 82% 30.39 in 10.0 mi Calm Calm - N/A   Clear
10:53 PM 36.0 °F - 28.9 °F 76% 30.38 in 10.0 mi Calm Calm - N/A   Clear
11:53 PM 35.1 °F - 30.0 °F 82% 30.38 in 10.0 mi Calm Calm - N/A   Clear